TimeADT,TemperatureF,Dew PointF,Humidity,Sea Level PressureIn,VisibilityMPH,Wind Direction,Wind SpeedMPH,Gust SpeedMPH,PrecipitationIn,Events,Conditions,WindDirDegrees,DateUTC
12:00 AM,30.4,26.2,85,30.41,-9999.0,ENE,4.6,-,N/A,,Unknown,70,2013-03-10 04:00:00
1:00 AM,30.6,26.1,83,30.42,-9999.0,NE,2.3,-,N/A,,Unknown,40,2013-03-10 05:00:00
3:00 AM,30,26,80,30.42,,NNE,2.3,,,,,30,2013-03-10 06:00:00
3:00 AM,30.4,26.2,85,30.42,-9999.0,NNE,2.3,-,N/A,,Unknown,30,2013-03-10 06:00:00
4:00 AM,30.4,26.4,85,30.41,-9999.0,NNE,2.3,-,N/A,,Unknown,30,2013-03-10 07:00:00
5:00 AM,30.4,26.1,84,30.41,-9999.0,NNE,2.3,-,N/A,,Unknown,20,2013-03-10 08:00:00
6:00 AM,30.6,25.9,83,30.42,-9999.0,NE,3.5,-,N/A,,Unknown,40,2013-03-10 09:00:00
7:00 AM,30.2,25.3,82,30.43,-9999.0,NE,3.5,-,N/A,,Unknown,40,2013-03-10 10:00:00
8:00 AM,30.2,25.2,82,30.43,-9999.0,NE,2.3,-,N/A,,Unknown,40,2013-03-10 11:00:00
9:00 AM,31,25,72,30.44,,NE,3.5,,,,,50,2013-03-10 12:00:00
10:00 AM,31.8,24.3,74,30.45,-9999.0,ENE,4.6,-,N/A,,Unknown,60,2013-03-10 13:00:00
11:00 AM,31.3,25.0,77,30.45,-9999.0,ENE,4.6,-,N/A,,Unknown,70,2013-03-10 14:00:00
12:00 PM,34.5,23.4,64,30.46,-9999.0,NE,2.3,-,N/A,,Unknown,40,2013-03-10 15:00:00
1:00 PM,34.9,23.5,63,30.44,-9999.0,NE,2.3,-,N/A,,Unknown,50,2013-03-10 16:00:00
2:00 PM,36.1,21.6,56,30.42,-9999.0,NE,3.5,-,N/A,,Unknown,50,2013-03-10 17:00:00
3:00 PM,35,22,46,30.41,,ENE,4.6,,,,,70,2013-03-10 18:00:00
3:00 PM,35.4,21.7,58,30.41,-9999.0,ENE,4.6,-,N/A,,Unknown,70,2013-03-10 18:00:00
4:00 PM,34.2,22.3,62,30.41,-9999.0,East,4.6,-,N/A,,Unknown,80,2013-03-10 19:00:00
5:00 PM,32.9,23.4,68,30.42,-9999.0,East,3.5,-,N/A,,Unknown,90,2013-03-10 20:00:00
6:00 PM,31.6,23.4,71,30.42,-9999.0,East,1.2,-,N/A,,Unknown,100,2013-03-10 21:00:00
7:00 PM,28.6,24.8,86,30.42,-9999.0,WNW,1.2,-,N/A,,Unknown,290,2013-03-10 22:00:00
8:00 PM,26.1,23.9,92,30.42,-9999.0,WSW,1.2,-,N/A,,Unknown,240,2013-03-10 23:00:00
9:00 PM,26,24,89,30.42,,SW,1.2,,,,,230,2013-03-11 00:00:00
9:00 PM,25.9,24.1,93,30.42,-9999.0,SW,1.2,-,N/A,,Unknown,230,2013-03-11 00:00:00
10:00 PM,25.0,23.5,94,30.42,-9999.0,WSW,1.2,-,N/A,,Unknown,240,2013-03-11 01:00:00
11:00 PM,24.1,22.8,95,30.41,-9999.0,WSW,2.3,-,N/A,,Unknown,240,2013-03-11 02:00:00
12:00 AM,24.1,23.2,96,30.39,-9999.0,SW,3.5,-,N/A,,Unknown,230,2013-03-11 03:00:00